Bucks Lake Weather Center

Moon Phase Calendar



Bucks Lake Water Level
Online Cameras

 


      

Current Conditions in Quincy
6/16/2024 7:59:00 PM

61°F
Feels Like 58
Clear
Humidity
40%
Pressure
29.77"
Wind
4.8 mph (W)
Dew Point
36°F
UV Index
0/10 (Low)
Visibility
6 mi

Hourly Forecast

Date & Time Sun, Jun 16
7:00 PM
Sun, Jun 16
8:00 PM
Sun, Jun 16
9:00 PM
Sun, Jun 16
10:00 PM
Sun, Jun 16
11:00 PM
Mon, Jun 17
12:00 AM
Mon, Jun 17
1:00 AM
Mon, Jun 17
2:00 AM
Mon, Jun 17
3:00 AM
Mon, Jun 17
4:00 AM
Mon, Jun 17
5:00 AM
Mon, Jun 17
6:00 AM
Mon, Jun 17
7:00 AM
Mon, Jun 17
8:00 AM
Mon, Jun 17
9:00 AM
Mon, Jun 17
10:00 AM
Mon, Jun 17
11:00 AM
Mon, Jun 17
12:00 PM
Mon, Jun 17
1:00 PM
Mon, Jun 17
2:00 PM
Mon, Jun 17
3:00 PM
Mon, Jun 17
4:00 PM
Mon, Jun 17
5:00 PM
Mon, Jun 17
6:00 PM
Mon, Jun 17
7:00 PM
Mon, Jun 17
8:00 PM
Mon, Jun 17
9:00 PM
Mon, Jun 17
10:00 PM
Mon, Jun 17
11:00 PM
Tue, Jun 18
12:00 AM
Tue, Jun 18
1:00 AM
Tue, Jun 18
2:00 AM
Tue, Jun 18
3:00 AM
Tue, Jun 18
4:00 AM
Tue, Jun 18
5:00 AM
Tue, Jun 18
6:00 AM
Tue, Jun 18
7:00 AM
Tue, Jun 18
8:00 AM
Tue, Jun 18
9:00 AM
Tue, Jun 18
10:00 AM
Tue, Jun 18
11:00 AM
Tue, Jun 18
12:00 PM
Tue, Jun 18
1:00 PM
Tue, Jun 18
2:00 PM
Tue, Jun 18
3:00 PM
Tue, Jun 18
4:00 PM
Tue, Jun 18
5:00 PM
Tue, Jun 18
6:00 PM
Condition
Clear

Clear

Clear

Clear

Clear

Clear

Clear

Clear

Clear

Clear

Clear

Clear

Clear

Clear

Clear

Clear

Clear

Clear

Clear

Clear

Clouds

Clouds

Clouds

Clear

Clear

Clear

Clear

Clear

Clear

Clear

Clear

Clear

Clear

Clear

Clear

Clear

Clear

Clear

Clouds

Clouds

Clouds

Clouds

Clouds

Clouds

Clouds

Clouds

Clouds

Clouds
Temperature 61°F61°F58°F55°F52°F48°F43°F41°F39°F38°F36°F35°F39°F44°F48°F52°F56°F59°F62°F65°F67°F68°F67°F65°F63°F56°F48°F45°F43°F41°F39°F38°F37°F36°F36°F35°F41°F50°F56°F63°F68°F70°F71°F71°F71°F70°F69°F67°F
Feels Like 59°F58°F56°F53°F49°F48°F43°F41°F39°F35°F31°F29°F32°F38°F43°F48°F52°F55°F59°F62°F64°F64°F64°F62°F60°F53°F45°F42°F38°F36°F34°F33°F31°F30°F29°F29°F36°F46°F53°F60°F65°F67°F68°F69°F68°F67°F66°F64°F
Cloudiness 9%9%9%8%8%6%2%1%2%2%1%7%6%6%5%4%3%3%2%1%15%18%15%0%0%0%0%0%0%0%0%0%0%1%2%1%1%2%20%35%45%70%64%69%78%82%86%100%
Visibility 6 mi6 mi6 mi6 mi6 mi6 mi6 mi6 mi6 mi6 mi6 mi6 mi6 mi6 mi6 mi6 mi6 mi6 mi6 mi6 mi6 mi6 mi6 mi6 mi6 mi6 mi6 mi6 mi6 mi6 mi6 mi6 mi6 mi6 mi6 mi6 mi6 mi6 mi6 mi6 mi6 mi6 mi6 mi6 mi6 mi6 mi6 mi6 mi
Precipitation 0%0%0%0%0%0%0%0%0%0%0%0%0%0%0%0%0%0%0%0%0%0%0%0%0%0%0%0%0%0%0%0%0%0%0%0%0%0%0%0%0%0%0%0%0%0%0%0%
Humidity 37%40%43%48%55%62%69%72%75%79%87%88%70%48%34%22%15%11%10%9%9%8%9%10%14%20%26%29%32%34%36%38%40%42%43%43%37%28%22%16%13%11%11%12%12%12%12%12%
Dew Point 35°F36°F36°F36°F36°F35°F35°F34°F33°F33°F34°F33°F31°F27°F22°F16°F10°F7°F6°F7°F7°F7°F7°F8°F14°F17°F16°F16°F16°F16°F16°F16°F16°F17°F17°F17°F18°F19°F19°F18°F16°F14°F15°F17°F17°F17°F16°F15°F
Pressure 29.77"29.77"29.77"29.8"29.8"29.8"29.8"29.83"29.83"29.85"29.91"29.94"29.94"29.91"29.91"29.88"29.88"29.88"29.85"29.83"29.83"29.8"29.8"29.8"29.8"29.85"29.88"29.91"29.94"29.94"29.94"29.94"29.94"29.94"29.94"29.94"29.88"29.85"29.83"29.8"29.8"29.77"29.74"29.74"29.74"29.74"29.74"29.74"
Wind Speed 9 mph4.8 mph2 mph3.9 mph2.3 mph0.6 mph0.9 mph0.5 mph1.2 mph3.6 mph6 mph7.5 mph9.1 mph9.8 mph9.3 mph8.1 mph6.6 mph7 mph6.9 mph6.5 mph6.6 mph7.5 mph8.2 mph9.2 mph9.2 mph7.2 mph6.2 mph6.5 mph6.7 mph7.1 mph7.3 mph7.6 mph8.1 mph8.2 mph8.3 mph8.6 mph8.1 mph7.8 mph6.2 mph3.7 mph0.7 mph2.1 mph5.6 mph7.9 mph8.5 mph8.5 mph8.1 mph6.6 mph
Wind
Direction
258°
WSW
263°
W
297°
WNW
326°
NW
313°
NW
264°
W
171°
S
298°
WNW
30°
NNE
46°
NE
34°
NE
30°
NNE
30°
NNE
32°
NNE
36°
NE
47°
NE
37°
NE
37°
NE
36°
NE
32°
NNE
25°
NNE
26°
NNE
29°
NNE
34°
NE
30°
NNE
23°
NNE
40°
NE
45°
NE
46°
NE
42°
NE
37°
NE
40°
NE
41°
NE
40°
NE
40°
NE
40°
NE
44°
NE
46°
NE
49°
NE
55°
NE
55°
NE
222°
SW
225°
SW
234°
SW
237°
WSW
237°
WSW
236°
SW
241°
WSW

Daily Forecast

Date High Low Precip. Humidity
Today
Jun 16

Clouds
70 °F
38 °F
0%
17%
Monday
Jun 17

Clear
68 °F
35 °F
0%
10%
Tuesday
Jun 18

Clouds
71 °F
35 °F
0%
11%
Wednesday
Jun 19

Clouds
74 °F
41 °F
0%
16%
Thursday
Jun 20

Clear
78 °F
46 °F
0%
18%
Friday
Jun 21

Clear
83 °F
47 °F
0%
16%
Saturday
Jun 22

Clear
85 °F
52 °F
0%
12%
Sunday
Jun 23

Clear
83 °F
54 °F
0%
15%
Monday
Jun 24

Clear
84 °F
53 °F
0%
14%
Tuesday
Jun 25

Clear
85 °F
51 °F
0%
11%
Wednesday
Jun 26

Clouds
86 °F
52 °F
0%
9%
Thursday
Jun 27

Clear
74 °F
52 °F
0%
19%
Friday
Jun 28

Clear
72 °F
46 °F
0%
23%
Saturday
Jun 29

Clear
86 °F
44 °F
0%
11%
Sunday
Jun 30

Clear
91 °F
51 °F
0%
12%
Monday
Jul 1

Clear
92 °F
56 °F
0%
12%

Temperature 8-14 Day Outlook



Precipitation 8-14 Day Outlook






About Us
Contact Us
Site Map
Search Site
Advertise With Us
   
Bucks.LakesOnline.com
THE BUCKS LAKE WEBSITE

Copyright 2024, Lakes Online
Privacy    |    Legal